Lugano, Switzerland

4:41 AM CEST on May 28, 2018 (GMT +0200)
Lugano

Weather History for LSZA - November, 2012

Change the Weather History Date:

Friday, November 23, 2012

  Actual Average Record
Temperature  
Mean Temperature 50 °F -  
Max Temperature 57 °F 46 °F 57 °F (2011)
Min Temperature 44 °F 35 °F 21 °F (1998)
Degree Days  
Heating Degree Days 14    
Moisture  
Dew Point 44 °F    
Average Humidity 80    
Maximum Humidity 93    
Minimum Humidity 59    
Precipitation  
Precipitation 0.00 in 0.10 in - ()
Sea Level Pressure  
Sea Level Pressure 30.20 in    
Wind  
Wind Speed 2 mph ()    
Max Wind Speed 6 mph    
Max Gust Speed -    
Visibility 6.1 miles    
Events      
Averages and records for this station are not official NWS values.
T = Trace of Precipitation, MM = Missing Value Source: Averaged Metar Reports

Daily Weather History Graph

Daily Weather History Graph

Search for Another Location

Airport or City:

Astronomy

Nov. 23, 2012 Rise Set
Actual Time 7:35 AM CET 4:45 PM CET
Civil Twilight 7:02 AM CET 5:18 PM CET
Nautical Twilight 6:25 AM CET 5:55 PM CET
Astronomical Twilight 5:50 AM CET 6:30 PM CET
Moon 2:04 PM CET (11/23) 2:24 AM CET (11/23)
Length of Visible Light 10h 15m
Length of Day
9h 09m
Waxing Gibbous, 77% of the Moon is Illuminated
Nov 23
Waxing Gibbous
Nov 28
Full
Dec 6
Last Quarter
Dec 13
New
Dec 20
First Quarter

Hourly Weather History & Observations

Time (CET) Temp. Windchill Dew Point Humidity Pressure Visibility Wind Dir Wind Speed Gust Speed Precip Events Conditions
12:00 AM 49 °F - 46 °F 85% 30.24 in - SE 2.3 mph - -  
12:20 AM 46.4 °F - 44.6 °F 93% 30.21 in 6.2 mi Variable 1.2 mph - N/A   Scattered Clouds
12:50 AM 46.4 °F - 44.6 °F 93% 30.21 in 5.6 mi Variable 1.2 mph - N/A   Mostly Cloudy
1:20 AM 46.4 °F - 44.6 °F 93% 30.21 in 5.6 mi Variable 2.3 mph - N/A   Mostly Cloudy
1:50 AM 46.4 °F - 44.6 °F 93% 30.18 in 6.2 mi Variable 1.2 mph - N/A   Mostly Cloudy
2:00 AM 49 °F - 45 °F 79% 30.22 in - Calm Calm - -  
2:20 AM 46.4 °F - 44.6 °F 93% 30.18 in 5.0 mi Variable 1.2 mph - N/A   Mostly Cloudy
2:50 AM 46.4 °F - 44.6 °F 93% 30.18 in 5.6 mi Variable 1.2 mph - N/A   Mostly Cloudy
3:00 AM 48 °F - 44 °F 83% 30.22 in - North 2.3 mph - -  
3:20 AM 46.4 °F - 44.6 °F 93% 30.18 in 5.0 mi Variable 1.2 mph - N/A   Mostly Cloudy
3:50 AM 46.4 °F - 44.6 °F 93% 30.18 in 5.6 mi NNE 2.3 mph - N/A   Overcast
4:20 AM 46.4 °F 43.5 °F 44.6 °F 93% 30.18 in 5.6 mi North 5.8 mph - N/A   Overcast
4:50 AM 46.4 °F - 44.6 °F 93% 30.18 in 6.2 mi Variable 2.3 mph - N/A   Overcast
5:00 AM 48 °F - 43 °F 76% 30.21 in - WNW 1.2 mph - -  
5:20 AM 46.4 °F - 44.6 °F 93% 30.18 in 6.2 mi Variable 1.2 mph - N/A   Overcast
5:50 AM 46.4 °F - 44.6 °F 93% 30.18 in 6.2 mi Variable 1.2 mph - N/A   Mostly Cloudy
6:00 AM 49 °F - 43 °F 74% 30.22 in - North 2.3 mph - -  
6:20 AM 44.6 °F 42.2 °F 42.8 °F 93% 30.18 in 6.2 mi North 4.6 mph - N/A   Overcast
6:50 AM 46.4 °F - 44.6 °F 93% 30.18 in 6.2 mi Variable 2.3 mph - N/A   Mostly Cloudy
7:20 AM 46.4 °F - 42.8 °F 87% 30.21 in 6.2 mi Variable 1.2 mph - N/A   Mostly Cloudy
7:50 AM 46.4 °F - 44.6 °F 93% 30.21 in 6.2 mi Variable 1.2 mph - N/A   Mostly Cloudy
8:00 AM 48 °F - 43 °F 78% 30.24 in - North 2.3 mph - -  
8:20 AM 46.4 °F 44.3 °F 42.8 °F 87% 30.21 in 6.2 mi North 4.6 mph - N/A   Mostly Cloudy
8:50 AM 46.4 °F - 42.8 °F 87% 30.21 in 6.2 mi Variable 2.3 mph - N/A   Mostly Cloudy
9:00 AM 49 °F - 44 °F 76% 30.24 in - NNE 1.2 mph - -  
9:20 AM 48.2 °F - 42.8 °F 82% 30.21 in 6.2 mi Calm Calm - N/A   Mostly Cloudy
9:50 AM 50.0 °F - 44.6 °F 82% 30.21 in 6.2 mi Variable 1.2 mph - N/A   Scattered Clouds
10:20 AM 51.8 °F - 44.6 °F 76% 30.21 in 6.2 mi Variable 1.2 mph - N/A   Scattered Clouds
10:50 AM 53.6 °F - 44.6 °F 72% 30.24 in 6.2 mi Variable 1.2 mph - N/A   Scattered Clouds
11:00 AM 52 °F - 44 °F 66% 30.25 in - SSW 1.2 mph - -  
11:20 AM 55.4 °F - 42.8 °F 63% 30.21 in 6.2 mi Variable 2.3 mph - N/A   Scattered Clouds
11:50 AM 55.4 °F - 44.6 °F 67% 30.21 in 6.2 mi Variable 3.5 mph - N/A   Partly Cloudy
12:00 PM 53 °F - 44 °F 64% 30.22 in - SSE 2.3 mph - -  
12:20 PM 55.4 °F - 44.6 °F 67% 30.18 in 6.2 mi Variable 2.3 mph - N/A   Partly Cloudy
12:50 PM 57.2 °F - 42.8 °F 59% 30.18 in 6.2 mi Variable 2.3 mph - N/A   Partly Cloudy
1:20 PM 57.2 °F - 44.6 °F 63% 30.18 in 6.2 mi South 3.5 mph - N/A   Partly Cloudy
1:50 PM 57.2 °F - 44.6 °F 63% 30.18 in 6.2 mi South 3.5 mph - N/A   Partly Cloudy
2:00 PM 54 °F - 44 °F 60% 30.18 in - SSE 2.3 mph - -  
2:20 PM 57.2 °F - 44.6 °F 63% 30.15 in 6.2 mi South 5.8 mph - N/A   Partly Cloudy
2:50 PM 57.2 °F - 44.6 °F 63% 30.15 in 6.2 mi South 4.6 mph - N/A   Partly Cloudy
3:00 PM 54 °F - 44 °F 59% 30.18 in - SW 1.2 mph - -  
3:20 PM 57.2 °F - 42.8 °F 59% 30.15 in 6.2 mi SSE 4.6 mph - N/A   Partly Cloudy
3:50 PM 55.4 °F - 44.6 °F 67% 30.15 in 6.2 mi South 4.6 mph - N/A   Partly Cloudy
4:20 PM 55.4 °F - 44.6 °F 67% 30.18 in 6.2 mi Variable 2.3 mph - N/A   Scattered Clouds
4:50 PM 53.6 °F - 44.6 °F 72% 30.18 in 6.2 mi Variable 3.5 mph - N/A   Scattered Clouds
5:00 PM 53 °F - 47 °F 74% 30.19 in - West 1.2 mph - -  
5:20 PM 51.8 °F - 44.6 °F 76% 30.18 in 6.2 mi Variable 2.3 mph - N/A   Scattered Clouds
5:50 PM 50.0 °F - 44.6 °F 82% 30.18 in - Variable 2.3 mph - N/A   Clear
6:00 PM 53 °F - 47 °F 72% 30.20 in - East 1.2 mph - -  
6:20 PM 50.0 °F - 44.6 °F 82% 30.18 in - Variable 2.3 mph - N/A   Clear
6:50 PM 50.0 °F - 44.6 °F 82% 30.21 in - North 1.2 mph - N/A   Clear
7:20 PM 48.2 °F - 44.6 °F 87% 30.21 in - Variable 1.2 mph - N/A   Clear
7:50 PM 48.2 °F - 44.6 °F 87% 30.21 in - Variable 1.2 mph - N/A   Clear
8:00 PM 52 °F - 44 °F 67% 30.24 in - Calm Calm - -  
8:20 PM 48.2 °F - 44.6 °F 87% 30.21 in - Variable 1.2 mph - N/A   Clear
8:50 PM 48.2 °F - 44.6 °F 87% 30.21 in - Variable 1.2 mph - N/A   Clear
9:00 PM 51 °F - 44 °F 70% 30.25 in - North 1.2 mph - -  
9:20 PM 48.2 °F - 44.6 °F 87% 30.24 in - NNW 3.5 mph - N/A   Clear
9:50 PM 48.2 °F - 44.6 °F 87% 30.24 in - Variable 1.2 mph - N/A   Clear
10:20 PM 46.4 °F - 44.6 °F 93% 30.24 in - North 2.3 mph - N/A   Clear
10:50 PM 46.4 °F - 44.6 °F 93% 30.24 in - Variable 2.3 mph - N/A   Clear
11:00 PM 50 °F - 44 °F 74% 30.26 in - NNW 2.3 mph - -  
11:20 PM 46.4 °F - 44.6 °F 93% 30.24 in 6.2 mi Variable 2.3 mph - N/A   Unknown
11:50 PM 44.6 °F - 42.8 °F 93% 30.24 in 6.2 mi North 2.3 mph - N/A   Unknown